Time,TemperatureF,DewpointF,PressureIn,WindDirection,WindDirectionDegrees,WindSpeedMPH,WindSpeedGustMPH,Humidity,HourlyPrecipIn,Conditions,Clouds,dailyrainin,SoftwareType,DateUTC
2013-05-11 00:00:00,68.1,59.9,29.85,WNW,284,0.0,0.0,75,0.00,,SCT100,0.00,VWS V14.00,2013-05-11 04:00:00,
2013-05-11 00:15:00,67.9,60.1,29.85,East,85,0.0,0.0,76,0.00,,SCT100,0.00,VWS V14.00,2013-05-11 04:15:00,
2013-05-11 00:30:00,67.6,60.1,29.85,East,82,0.0,0.0,77,0.00,,SCT100,0.00,VWS V14.00,2013-05-11 04:30:00,
2013-05-11 00:45:00,67.4,60.3,29.85,East,82,0.0,0.0,78,0.00,,SCT100,0.00,VWS V14.00,2013-05-11 04:45:00,
2013-05-11 01:00:00,67.4,60.3,29.85,ENE,62,0.0,2.0,78,0.00,,SCT120,0.00,VWS V14.00,2013-05-11 05:00:00,
2013-05-11 01:15:00,67.4,60.0,29.84,ENE,64,0.0,0.0,77,0.00,,SCT120,0.00,VWS V14.00,2013-05-11 05:15:00,
2013-05-11 01:30:00,67.3,59.8,29.83,ENE,64,0.0,1.0,77,0.00,,SCT120,0.00,VWS V14.00,2013-05-11 05:30:00,
2013-05-11 01:45:00,67.3,59.8,29.83,ENE,64,0.0,1.0,77,0.00,,SCT120,0.00,VWS V14.00,2013-05-11 05:45:00,
2013-05-11 02:00:00,67.1,59.7,29.82,ENE,64,0.0,0.0,77,0.00,,BKN060,0.00,VWS V14.00,2013-05-11 06:00:00,
2013-05-11 02:15:00,67.1,59.7,29.82,ENE,64,0.0,2.0,77,0.00,,BKN060,0.00,VWS V14.00,2013-05-11 06:15:00,
2013-05-11 02:30:00,67.1,59.7,29.82,ENE,64,0.0,1.0,77,0.00,,BKN060,0.00,VWS V14.00,2013-05-11 06:30:00,
2013-05-11 02:45:00,66.6,59.2,29.82,ENE,64,0.0,1.0,77,0.00,,BKN060,0.00,VWS V14.00,2013-05-11 06:45:00,
2013-05-11 03:00:00,66.6,59.5,29.81,ENE,64,0.0,2.0,78,0.00,,BKN060,0.00,VWS V14.00,2013-05-11 07:00:00,
2013-05-11 03:15:00,66.3,59.2,29.81,East,83,0.0,2.0,78,0.00,,BKN060,0.00,VWS V14.00,2013-05-11 07:15:00,
2013-05-11 03:30:00,66.1,59.4,29.81,ENE,58,0.0,3.0,79,0.00,,BKN060,0.00,VWS V14.00,2013-05-11 07:30:00,
2013-05-11 03:45:00,65.6,58.9,29.81,NE,55,0.0,0.0,79,0.00,,BKN060,0.00,VWS V14.00,2013-05-11 07:45:00,
2013-05-11 04:00:00,65.5,59.5,29.81,ENE,65,0.0,2.0,81,0.00,,SCT095,0.00,VWS V14.00,2013-05-11 08:00:00,
2013-05-11 04:15:00,65.2,59.6,29.81,ENE,68,0.0,2.0,82,0.00,,SCT095,0.00,VWS V14.00,2013-05-11 08:15:00,
2013-05-11 04:30:00,65.2,59.6,29.81,ENE,72,1.0,3.0,82,0.00,,SCT095,0.00,VWS V14.00,2013-05-11 08:30:00,
2013-05-11 04:45:00,65.0,59.4,29.81,ENE,71,1.0,2.0,82,0.00,,SCT095,0.00,VWS V14.00,2013-05-11 08:45:00,
2013-05-11 05:00:00,64.7,59.4,29.81,ENE,73,0.0,2.0,83,0.00,,FEW075,0.00,VWS V14.00,2013-05-11 09:00:00,
2013-05-11 05:15:00,64.5,59.2,29.81,ENE,66,0.0,1.0,83,0.00,,FEW075,0.00,VWS V14.00,2013-05-11 09:15:00,
2013-05-11 05:30:00,64.7,59.4,29.81,ENE,75,0.0,1.0,83,0.00,,FEW075,0.00,VWS V14.00,2013-05-11 09:30:00,
2013-05-11 05:45:00,64.5,59.2,29.81,ENE,68,0.0,2.0,83,0.00,,FEW075,0.00,VWS V14.00,2013-05-11 09:45:00,
2013-05-11 06:00:00,64.5,59.6,29.82,ENE,69,0.0,1.0,84,0.00,,SCT100,0.00,VWS V14.00,2013-05-11 10:00:00,
2013-05-11 06:15:00,64.7,59.4,29.82,ENE,68,0.0,2.0,83,0.00,,SCT100,0.00,VWS V14.00,2013-05-11 10:15:00,
2013-05-11 06:30:00,64.8,59.5,29.82,ENE,69,0.0,2.0,83,0.00,,SCT100,0.00,VWS V14.00,2013-05-11 10:30:00,
2013-05-11 06:45:00,65.3,59.7,29.81,ENE,71,0.0,4.0,82,0.00,,SCT100,0.00,VWS V14.00,2013-05-11 10:45:00,
2013-05-11 07:00:00,66.6,59.9,29.82,ENE,76,0.0,3.0,79,0.00,,SCT100,0.00,VWS V14.00,2013-05-11 11:00:00,
2013-05-11 07:15:00,68.4,60.2,29.81,ENE,66,1.0,3.0,75,0.00,,SCT100,0.00,VWS V14.00,2013-05-11 11:15:00,
2013-05-11 07:30:00,70.3,60.9,29.80,WSW,250,0.0,6.0,72,0.00,,SCT100,0.00,VWS V14.00,2013-05-11 11:30:00,
2013-05-11 07:45:00,71.5,60.8,29.80,ENE,68,0.0,3.0,69,0.00,,SCT100,0.00,VWS V14.00,2013-05-11 11:45:00,
2013-05-11 08:00:00,72.8,60.8,29.80,NNE,21,0.0,6.0,66,0.00,,SCT100,0.00,VWS V14.00,2013-05-11 12:00:00,
2013-05-11 08:15:00,74.0,61.5,29.80,NNW,342,0.0,6.0,65,0.00,,SCT100,0.00,VWS V14.00,2013-05-11 12:15:00,
2013-05-11 08:30:00,75.1,61.2,29.81,WNW,298,0.0,4.0,62,0.00,,SCT100,0.00,VWS V14.00,2013-05-11 12:30:00,
2013-05-11 08:45:00,75.4,60.6,29.81,WSW,244,1.0,5.0,60,0.00,,SCT100,0.00,VWS V14.00,2013-05-11 12:45:00,
2013-05-11 09:00:00,76.1,59.8,29.80,West,267,1.0,7.0,57,0.00,,FEW100,0.00,VWS V14.00,2013-05-11 13:00:00,
2013-05-11 09:15:00,76.8,59.9,29.79,West,277,2.0,7.0,56,0.00,,FEW100,0.00,VWS V14.00,2013-05-11 13:15:00,
2013-05-11 09:30:00,77.6,60.2,29.79,West,264,0.0,6.0,55,0.00,,FEW100,0.00,VWS V14.00,2013-05-11 13:30:00,
2013-05-11 09:45:00,78.1,60.1,29.80,West,281,2.0,3.0,54,0.00,,FEW100,0.00,VWS V14.00,2013-05-11 13:45:00,
2013-05-11 10:00:00,77.2,61.3,29.80,WSW,258,1.0,6.0,58,0.00,,CLR,0.00,VWS V14.00,2013-05-11 14:00:00,
2013-05-11 10:15:00,77.9,60.5,29.80,WSW,256,0.0,5.0,55,0.00,,CLR,0.00,VWS V14.00,2013-05-11 14:15:00,
2013-05-11 10:30:00,79.2,59.5,29.80,West,272,3.0,6.0,51,0.00,,CLR,0.00,VWS V14.00,2013-05-11 14:30:00,
2013-05-11 10:45:00,78.3,59.2,29.80,WNW,295,0.0,8.0,52,0.00,,CLR,0.00,VWS V14.00,2013-05-11 14:45:00,
2013-05-11 11:00:00,77.9,58.9,29.80,WSW,251,1.0,10.0,52,0.00,,SCT035,0.00,VWS V14.00,2013-05-11 15:00:00,
2013-05-11 11:15:00,78.5,58.9,29.79,West,277,0.0,3.0,51,0.00,,SCT035,0.00,VWS V14.00,2013-05-11 15:15:00,
2013-05-11 11:30:00,79.6,58.8,29.79,NW,304,2.0,6.0,49,0.00,,SCT035,0.00,VWS V14.00,2013-05-11 15:30:00,
2013-05-11 11:45:00,79.2,61.1,29.78,SSW,199,2.0,5.0,54,0.00,,SCT035,0.00,VWS V14.00,2013-05-11 15:45:00,
2013-05-11 12:00:00,79.6,59.3,29.78,SW,226,0.0,5.0,50,0.00,,BKN100,0.00,VWS V14.00,2013-05-11 16:00:00,
2013-05-11 12:15:00,80.1,58.7,29.77,WSW,246,0.0,4.0,48,0.00,,BKN100,0.00,VWS V14.00,2013-05-11 16:15:00,
2013-05-11 12:30:00,80.3,60.0,29.76,WSW,258,0.0,3.0,50,0.00,,BKN100,0.00,VWS V14.00,2013-05-11 16:30:00,
2013-05-11 12:45:00,81.1,59.0,29.76,NNW,330,1.0,3.0,47,0.00,,BKN100,0.00,VWS V14.00,2013-05-11 16:45:00,
2013-05-11 13:00:00,81.6,59.4,29.76,NNW,340,0.0,6.0,47,0.00,,BKN120,0.00,VWS V14.00,2013-05-11 17:00:00,
2013-05-11 13:15:00,81.2,59.7,29.75,NNW,344,1.0,3.0,48,0.00,,BKN120,0.00,VWS V14.00,2013-05-11 17:15:00,
2013-05-11 13:30:00,81.1,59.6,29.75,North,353,2.0,5.0,48,0.00,,BKN120,0.00,VWS V14.00,2013-05-11 17:30:00,
2013-05-11 13:45:00,80.7,59.8,29.74,West,263,0.0,7.0,49,0.00,,BKN120,0.00,VWS V14.00,2013-05-11 17:45:00,
2013-05-11 14:00:00,80.3,59.4,29.74,West,270,2.0,6.0,49,0.00,,SCT085,0.00,VWS V14.00,2013-05-11 18:00:00,
2013-05-11 14:15:00,80.3,59.4,29.74,SW,229,2.0,7.0,49,0.00,,SCT085,0.00,VWS V14.00,2013-05-11 18:15:00,
2013-05-11 14:30:00,80.3,60.0,29.73,WSW,254,0.0,3.0,50,0.00,,SCT085,0.00,VWS V14.00,2013-05-11 18:30:00,
2013-05-11 14:45:00,80.5,59.0,29.72,WNW,291,0.0,7.0,48,0.00,,SCT085,0.00,VWS V14.00,2013-05-11 18:45:00,
2013-05-11 15:00:00,80.9,59.4,29.73,WSW,251,0.0,6.0,48,0.00,,BKN080,0.00,VWS V14.00,2013-05-11 19:00:00,
2013-05-11 15:15:00,79.8,63.7,29.72,NE,52,2.0,7.0,58,0.00,,BKN080,0.00,VWS V14.00,2013-05-11 19:15:00,
2013-05-11 15:30:00,78.6,63.1,29.72,NW,322,0.0,3.0,59,0.00,,BKN080,0.00,VWS V14.00,2013-05-11 19:30:00,
2013-05-11 15:45:00,78.3,62.3,29.71,North,354,0.0,3.0,58,0.00,,BKN080,0.00,VWS V14.00,2013-05-11 19:45:00,
2013-05-11 16:00:00,78.3,61.3,29.71,WNW,284,0.0,3.0,56,0.00,,SCT085,0.00,VWS V14.00,2013-05-11 20:00:00,
2013-05-11 16:15:00,78.8,60.8,29.71,West,267,1.0,5.0,54,0.00,,SCT085,0.00,VWS V14.00,2013-05-11 20:15:00,
2013-05-11 16:30:00,78.1,62.6,29.72,ENE,66,0.0,6.0,59,0.00,,SCT085,0.00,VWS V14.00,2013-05-11 20:30:00,
2013-05-11 16:45:00,77.7,62.2,29.71,WNW,291,1.0,5.0,59,0.00,,SCT085,0.00,VWS V14.00,2013-05-11 20:45:00,
2013-05-11 17:00:00,79.2,60.6,29.71,ENE,65,5.0,6.0,53,0.00,,SCT085,0.00,VWS V14.00,2013-05-11 21:00:00,
2013-05-11 17:15:00,79.2,58.4,29.70,NNW,335,2.0,7.0,49,0.00,,SCT085,0.00,VWS V14.00,2013-05-11 21:15:00,
2013-05-11 17:30:00,79.2,59.5,29.69,WSW,254,1.0,7.0,51,0.00,,SCT085,0.00,VWS V14.00,2013-05-11 21:30:00,
2013-05-11 17:45:00,78.5,58.9,29.70,West,261,1.0,8.0,51,0.00,,SCT085,0.00,VWS V14.00,2013-05-11 21:45:00,
2013-05-11 18:00:00,76.8,59.4,29.70,WSW,251,0.0,3.0,55,0.00,,BKN090,0.00,VWS V14.00,2013-05-11 22:00:00,
2013-05-11 18:15:00,75.8,59.5,29.71,West,281,0.0,11.0,57,0.00,,BKN090,0.00,VWS V14.00,2013-05-11 22:15:00,
2013-05-11 18:30:00,75.1,59.8,29.72,NW,312,1.0,7.0,59,0.00,,BKN090,0.00,VWS V14.00,2013-05-11 22:30:00,
2013-05-11 18:45:00,73.2,59.4,29.73,NW,323,0.0,7.0,62,0.00,,BKN090,0.00,VWS V14.00,2013-05-11 22:45:00,
2013-05-11 19:00:00,71.8,59.8,29.72,WNW,292,0.0,4.0,66,0.00,,BKN075,0.00,VWS V14.00,2013-05-11 23:00:00,
2013-05-11 19:15:00,70.9,60.2,29.73,WNW,291,0.0,2.0,69,0.00,,BKN075,0.00,VWS V14.00,2013-05-11 23:15:00,
2013-05-11 19:30:00,69.6,61.7,29.73,WSW,237,0.0,6.0,76,0.00,,OVC100,0.00,VWS V14.00,2013-05-11 23:30:00,
2013-05-11 19:45:00,68.4,61.6,29.74,WSW,247,0.0,3.0,79,0.00,,OVC100,0.00,VWS V14.00,2013-05-11 23:45:00,
2013-05-11 20:00:00,67.9,61.5,29.73,WSW,247,0.0,2.0,80,0.00,,OVC100,0.00,VWS V14.00,2013-05-12 00:00:00,
2013-05-11 20:15:00,67.6,61.9,29.74,West,274,3.0,6.0,82,0.00,,OVC100,0.00,VWS V14.00,2013-05-12 00:15:00,
2013-05-11 20:30:00,66.3,61.7,29.74,WSW,251,0.0,4.0,85,0.02,,OVC100,0.02,VWS V14.00,2013-05-12 00:30:00,
2013-05-11 20:45:00,65.3,61.0,29.74,West,270,0.0,4.0,86,0.02,,OVC100,0.02,VWS V14.00,2013-05-12 00:45:00,
2013-05-11 21:00:00,65.0,61.0,29.75,West,270,0.0,0.0,87,0.02,,-RA,0.02,VWS V14.00,2013-05-12 01:00:00,
2013-05-11 21:15:00,64.8,60.8,29.74,West,270,0.0,2.0,87,0.02,,-RA,0.02,VWS V14.00,2013-05-12 01:15:00,
2013-05-11 21:30:00,64.5,60.5,29.74,West,270,0.0,1.0,87,0.02,,-RA,0.02,VWS V14.00,2013-05-12 01:30:00,
2013-05-11 22:15:00,63.9,60.6,29.73,West,270,0.0,1.0,89,0.01,,-RA,0.03,VWS V14.00,2013-05-12 02:15:00,
2013-05-11 22:45:00,63.7,60.7,29.73,West,274,0.0,1.0,90,0.01,,-RA,0.03,VWS V14.00,2013-05-12 02:45:00,
2013-05-11 22:47:00,64.3,60.7,29.74,West,268,0.0,0.0,88,0.00,,-RA,0.02,VWS V14.00,2013-05-12 02:47:00,
2013-05-11 23:00:00,63.7,60.7,29.73,West,268,0.0,1.0,90,0.01,,OVC095,0.03,VWS V14.00,2013-05-12 03:00:00,
2013-05-11 23:02:00,64.0,60.4,29.73,West,268,0.0,0.0,88,0.00,,-RA,0.02,VWS V14.00,2013-05-12 03:02:00,
2013-05-11 23:15:00,63.7,60.7,29.73,West,268,0.0,1.0,90,0.01,,OVC095,0.03,VWS V14.00,2013-05-12 03:15:00,
2013-05-11 23:30:00,63.7,60.7,29.74,West,268,0.0,1.0,90,0.00,,OVC095,0.03,VWS V14.00,2013-05-12 03:30:00,
2013-05-11 23:32:00,63.7,60.4,29.73,West,270,0.0,0.0,89,0.01,,-RA,0.03,VWS V14.00,2013-05-12 03:32:00,
2013-05-11 23:45:00,63.5,60.5,29.74,WNW,291,0.0,2.0,90,0.00,,OVC095,0.03,VWS V14.00,2013-05-12 03:45:00,